Location: *
(51.2167°N, 10.0667°E)
Time: 04:14:24
(UTC+00:00)

AQUARIUS - Pass Details

Date: 12 December 2019
Orbit: 650 x 653 km, 98.0° (Epoch: 17 January)

Event Time Altitude Azimuth Distance (km) Brightness Sun altitude
Rises 16:47:53 0° 170° (S) 2,964 7.7 -14.0°
Reaches altitude 10° 16:50:06 10° 172° (S) 2,058 6.9 -14.3°
Maximum altitude 16:54:35 71° 257° (WSW) 694 4.5 -15.0°
Drops below altitude 10° 16:59:06 10° 342° (NNW) 2,073 6.8 -15.6°
Sets 17:01:20 0° 345° (NNW) 2,989 7.6 -16.0°
